DW0126 Weather Reports


Display with metric or nautical units.
time (UTC)temp
F
wind
direction
speed
MPH
gust
MPH
rain 1hr
in
rain 24hr
in
rain mn
in
humidity
%
barometer
mb
20260906122316 50 0.0 0.0 0.00 0.00 0.00 92 1015.3
20260906121316 50 0.0 0.0 0.00 0.00 0.00 92 1015.3
20260906120316 50 0.0 0.0 0.00 0.00 0.00 92 1015.3
20260906115356 50 45 1.0 2.0 0.00 0.00 0.00 92 1015.3
20260906114316 49 0.0 0.0 0.00 0.00 0.00 92 1015.2
20260906113316 50 0.0 1.0 0.00 0.00 0.00 92 1015.4
20260906112316 50 0.0 0.0 0.00 0.00 0.00 93 1015.7
20260906111350 50 0.0 0.0 0.00 0.00 0.00 93 1015.8
20260906110416 50 0.0 0.0 0.00 0.00 0.00 93 1015.7
20260906105416 50 0.0 0.0 0.00 0.00 0.00 93 1015.9
20260906104416 49 0.0 0.0 0.00 0.00 0.00 93 1015.8
20260906103416 49 0.0 0.0 0.00 0.00 0.00 93 1015.7
20260906102416 49 0.0 0.0 0.00 0.00 0.00 93 1015.8
20260906101416 50 0.0 0.0 0.00 0.00 0.00 93 1015.8
20260906100416 50 0.0 1.0 0.00 0.00 0.00 93 1015.7
20260906095417 49 0.0 1.0 0.00 0.00 0.00 93 1015.6
20260906094417 49 0.0 0.0 0.00 0.00 0.00 92 1015.5
20260906093416 49 0.0 0.0 0.00 0.00 0.00 92 1015.4
20260906092416 49 0.0 0.0 0.00 0.00 0.00 92 1015.5
20260906091416 49 0.0 1.0 0.00 0.00 0.00 92 1015.4
20260906090416 49 0.0 1.0 0.00 0.00 0.00 92 1015.3
20260906085417 50 68 2.0 3.0 0.00 0.00 0.00 92 1015.4
20260906084436 49 0.0 0.0 0.00 0.00 0.00 92 1015.4
20260906083416 50 0.0 0.0 0.00 0.00 0.00 92 1015.5
20260906082416 50 0.0 0.0 0.00 0.00 0.00 92 1015.5
20260906081416 50 0.0 0.0 0.00 0.00 0.00 91 1015.6
20260906080416 50 0.0 0.0 0.00 0.00 0.00 91 1015.6
20260906075436 51 0.0 0.0 0.00 0.00 0.00 91 1015.5
20260906074416 51 0.0 0.0 0.00 0.00 0.00 92 1015.5
20260906073416 51 0.0 0.0 0.00 0.00 0.00 91 1015.6
20260906072416 51 0.0 0.0 0.00 0.00 0.00 91 1015.5
20260906071436 51 0.0 0.0 0.00 0.00 0.00 91 1015.6
20260906070416 52 0.0 0.0 0.00 0.00 0.00 92 1015.7
20260906065417 52 0.0 1.0 0.00 0.00 0.00 92 1015.9
20260906064417 51 0.0 0.0 0.00 0.00 0.00 92 1015.7
20260906063417 52 0.0 0.0 0.00 0.00 0.00 92 1015.6
20260906062417 52 0.0 0.0 0.00 0.00 0.00 92 1015.4
20260906061417 52 0.0 0.0 0.00 0.00 0.00 92 1015.3
20260906060457 52 0.0 0.0 0.00 0.00 0.00 92 1015.3
20260906055417 53 0.0 0.0 0.00 0.00 0.00 92 1015.3
20260906054417 53 0.0 0.0 0.00 0.00 0.00 91 1015.5
20260906053437 53 0.0 0.0 0.00 0.00 0.00 91 1015.6
20260906052417 53 0.0 0.0 0.00 0.00 0.00 91 1015.6
20260906051417 53 0.0 1.0 0.00 0.00 0.00 91 1015.5
20260906050417 54 0.0 0.0 0.00 0.00 0.00 91 1015.5
20260906045437 54 0.0 0.0 0.00 0.01 0.00 91 1015.6
20260906044417 54 0.0 0.0 0.00 0.01 0.00 90 1015.7
20260906043417 55 0.0 0.0 0.00 0.01 0.00 89 1015.7
20260906042417 55 0.0 0.0 0.00 0.01 0.00 89 1015.7
20260906041417 55 0.0 0.0 0.00 0.01 0.00 89 1015.7
20260906040437 55 0.0 0.0 0.00 0.01 0.00 89 1015.7
20260906035437 56 0.0 1.0 0.00 0.01 0.00 88 1015.5
20260906034417 57 0.0 0.0 0.00 0.01 0.00 88 1015.4
20260906033417 56 0.0 0.0 0.00 0.01 0.00 89 1015.3
20260906032437 56 45 1.0 2.0 0.00 0.01 0.00 88 1015.2
20260906031417 58 0.0 0.0 0.00 0.01 0.00 87 1015.2
20260906030417 58 0.0 0.0 0.00 0.01 0.00 87 1015.2
20260906025417 58 0.0 0.0 0.00 0.01 0.00 86 1015.3
20260906024417 59 0.0 1.0 0.00 0.01 0.00 85 1015.3
20260906023417 59 0.0 0.0 0.00 0.02 0.00 85 1015.4
20260906022417 60 0.0 1.0 0.00 0.03 0.00 83 1015.3
20260906021417 61 0.0 0.0 0.00 0.03 0.00 82 1015.3
20260906020417 61 0.0 0.0 0.00 0.03 0.00 81 1015.3
20260906015437 63 0.0 0.0 0.00 0.03 0.00 80 1015.5
20260906014417 64 0.0 0.0 0.00 0.03 0.00 79 1015.4
20260906013417 64 0.0 0.0 0.00 0.03 0.00 79 1015.3
20260906012417 64 0.0 1.0 0.00 0.03 0.00 79 1015.4
20260906011417 65 0.0 1.0 0.00 0.03 0.00 76 1015.4
20260906010437 66 0.0 0.0 0.00 0.03 0.00 73 1015.4
20260906005417 67 45 1.0 2.0 0.00 0.03 0.00 70 1015.3
20260906004417 67 0.0 1.0 0.00 0.03 0.00 71 1015.3
20260906003457 67 0.0 0.0 0.00 0.03 0.00 71 1015.3
20260906002417 67 0.0 0.0 0.00 0.03 0.00 71 1015.3
20260906001417 67 23 1.0 2.0 0.00 0.03 0.00 67 1015.3
20260906000418 67 0.0 0.0 0.00 0.03 0.00 67 1015.3
20260905235417 67 45 1.0 2.0 0.00 0.03 0.00 67 1015.2
20260905234417 67 0.0 1.0 0.00 0.03 0.00 68 1015.3
20260905233417 67 0.0 0.0 0.00 0.03 0.00 67 1015.3
20260905232417 67 0.0 2.0 0.00 0.03 0.00 66 1015.3
20260905231417 68 68 1.0 3.0 0.00 0.03 0.00 61 1015.3
20260905230417 68 0.0 0.0 0.00 0.03 0.00 60 1015.4
20260905225417 68 0.0 1.0 0.00 0.03 0.00 56 1015.3
20260905224417 69 0.0 1.0 0.00 0.03 0.00 55 1015.4
20260905223417 69 0.0 2.0 0.00 0.03 0.00 55 1015.4
20260905222417 70 90 1.0 2.0 0.00 0.03 0.00 54 1015.3
20260905221417 71 45 2.0 4.0 0.00 0.03 0.00 53 1015.6
20260905220417 71 270 1.0 3.0 0.00 0.03 0.00 54 1015.8
20260905215417 71 0.0 0.0 0.00 0.03 0.00 55 1015.9
20260905214417 71 23 1.0 2.0 0.00 0.04 0.00 56 1015.9
20260905213417 70 45 1.0 3.0 0.00 0.04 0.00 58 1016.0
20260905212417 70 45 2.0 4.0 0.00 0.04 0.00 56 1016.1
20260905211417 69 0.0 1.0 0.00 0.04 0.00 59 1016.2
20260905210417 68 0.0 2.0 0.00 0.04 0.00 60 1016.2
20260905205417 68 0.0 1.0 0.00 0.04 0.00 60 1016.4
20260905204417 66 338 1.0 2.0 0.00 0.04 0.00 63 1016.4
20260905203417 67 225 2.0 4.0 0.00 0.04 0.00 62 1016.6
20260905202417 66 68 2.0 3.0 0.00 0.04 0.00 66 1016.6
20260905201417 65 0.0 2.0 0.00 0.04 0.00 65 1016.7
20260905200417 68 158 2.0 4.0 0.00 0.04 0.00 65 1016.7
20260905195417 67 203 1.0 3.0 0.00 0.04 0.00 67 1016.9
20260905194417 66 203 2.0 3.0 0.00 0.04 0.00 69 1017.0
20260905193417 65 68 1.0 3.0 0.00 0.04 0.00 72 1017.0
20260905192417 65 270 2.0 4.0 0.00 0.04 0.00 76 1017.1
20260905191417 64 0.0 1.0 0.00 0.04 0.00 76 1017.2
20260905190417 64 68 1.0 3.0 0.00 0.04 0.00 79 1017.3
20260905185437 62 45 1.0 3.0 0.00 0.04 0.00 80 1017.2
20260905184437 62 0 2.0 4.0 0.00 0.04 0.00 83 1017.2
20260905183417 61 0.0 0.0 0.00 0.04 0.00 86 1017.3
20260905182417 60 68 1.0 2.0 0.00 0.04 0.00 88 1017.4
20260905181418 60 0 3.0 5.0 0.00 0.04 0.00 90 1017.6
20260905180417 59 23 3.0 4.0 0.00 0.04 0.00 92 1017.6
20260905175457 57 45 1.0 1.0 0.00 0.04 0.00 93 1017.4
20260905174417 57 90 2.0 3.0 0.00 0.04 0.00 93 1017.4
20260905173517 56 45 1.0 2.0 0.00 0.04 0.00 93 1017.4
20260905172417 56 68 2.0 4.0 0.00 0.04 0.00 93 1017.4
20260905171417 55 90 1.0 4.0 0.00 0.04 0.00 93 1017.5
20260905170417 55 23 1.0 2.0 0.00 0.04 0.00 94 1017.5
20260905165416 54 23 1.0 2.0 0.00 0.04 0.00 94 1017.3
20260905164417 53 0.0 1.0 0.00 0.04 0.00 94 1017.4
20260905163417 52 45 1.0 1.0 0.00 0.04 0.00 94 1017.4
20260905162417 52 23 1.0 2.0 0.00 0.04 0.00 95 1017.4
20260905161417 51 45 2.0 2.0 0.00 0.04 0.00 95 1017.2
20260905160416 51 23 1.0 2.0 0.00 0.04 0.00 95 1017.0
20260905155437 51 23 1.0 2.0 0.00 0.04 0.00 95 1017.0
20260905154417 51 0.0 0.0 0.00 0.04 0.00 95 1016.9
20260905153557 51 0.0 0.0 0.00 0.04 0.00 95 1017.0
20260905152417 50 0.0 0.0 0.00 0.04 0.00 95 1017.0
20260905151417 50 0.0 0.0 0.00 0.04 0.00 95 1017.1
20260905150417 50 0.0 0.0 0.00 0.04 0.00 95 1017.0
20260905145437 49 0.0 0.0 0.00 0.04 0.00 95 1016.9
20260905144437 49 0.0 0.0 0.00 0.04 0.00 95 1016.9
20260905143457 49 0.0 0.0 0.00 0.04 0.00 95 1016.9
20260905142417 49 0.0 0.0 0.00 0.04 0.00 95 1016.9
20260905141417 49 0.0 0.0 0.00 0.04 0.00 95 1016.8
20260905140417 49 45 1.0 2.0 0.00 0.04 0.00 95 1016.9
20260905135417 49 0.0 0.0 0.00 0.04 0.00 95 1016.7
20260905134417 49 0.0 1.0 0.00 0.04 0.00 95 1016.7
20260905133417 49 23 2.0 2.0 0.00 0.04 0.00 95 1016.7
20260905132417 49 0.0 0.0 0.00 0.04 0.00 95 1016.6
20260905131416 48 0.0 0.0 0.00 0.04 0.00 95 1016.5
20260905130417 48 0.0 0.0 0.00 0.04 0.00 95 1016.6
20260905125417 49 0.0 0.0 0.00 0.04 0.00 95 1016.4
20260905124437 48 0.0 0.0 0.00 0.04 0.00 95 1016.7
20260905123417 48 0.0 1.0 0.00 0.04 0.00 95 1016.6